,

(GMT )
Lytton

Weather History for CWLY - October, 2011

Change the Weather History Date:

Monday, October 31, 2011

  Actual Average Record
Temperature  
Mean Temperature 48 °F -  
Max Temperature 53 °F 46 °F 59 °F (2013)
Min Temperature 42 °F 34 °F 21 °F (2002)
Degree Days  
Heating Degree Days 17    
Moisture  
Dew Point 37 °F    
Average Humidity 64    
Maximum Humidity 71    
Minimum Humidity 45    
Precipitation  
Precipitation 0.00 in - - ()
Sea Level Pressure  
Sea Level Pressure 30.21 in    
Wind  
Wind Speed 15 mph ()    
Max Wind Speed 22 mph    
Max Gust Speed 33 mph    
Visibility 9.0 miles    
Events      
Averages and records for this station are not official NWS values.
T = Trace of Precipitation, MM = Missing Value Source: Averaged Metar Reports

Daily Weather History Graph

Daily Weather History Graph

Search for Another Location

Airport or City:

Trip Planner

Search our weather history database for the weather conditions in past years. The results will help you decide how hot, cold, wet, or windy it might be!

Date:

Astronomy

Oct. 31, 2011 Rise Set
Actual Time 7:54 AM PDT 5:44 PM PDT
Civil Twilight 7:20 AM PDT 6:18 PM PDT
Nautical Twilight 6:42 AM PDT 6:56 PM PDT
Astronomical Twilight 6:04 AM PDT 7:34 PM PDT
Moon 1:18 PM PDT (10/31) 10:15 PM PDT (10/31)
Length of Visible Light 10h 57m
Length of Day
9h 49m
Waxing Crescent, 31% of the Moon is Illuminated
Oct 31
Waxing Crescent
Nov 2
First Quarter
Nov 10
Full
Nov 18
Last Quarter
Nov 24
New

Hourly Weather History & Observations

Time (PDT) Temp. Windchill Dew Point Humidity Pressure Visibility Wind Dir Wind Speed Gust Speed Precip Events Conditions
12:00 AM 50.0 °F - 39.2 °F 66% 30.00 in 9.0 mi SSW 5.8 mph - N/A   Scattered Clouds
1:00 AM 48.2 °F - 39.2 °F 71% 30.03 in 9.0 mi South 15.0 mph 21.9 mph N/A   Partly Cloudy
2:00 AM 48 °F - 38 °F 58% 30.05 in 9 mi South 19.6 mph - -  
2:00 AM 48.2 °F - 37.4 °F 66% 30.05 in 9.0 mi South 21.9 mph 31.1 mph N/A   Clear
3:00 AM 48.2 °F - 37.4 °F 66% 30.07 in 9.0 mi South 20.7 mph 32.2 mph N/A   Clear
4:00 AM 46.4 °F 40.1 °F 37.4 °F 71% 30.09 in 9.0 mi SSW 15.0 mph 29.9 mph N/A   Clear
5:00 AM 46 °F - 38 °F 64% 30.11 in 9 mi South 19.6 mph - -  
5:00 AM 46.4 °F 39.8 °F 37.4 °F 71% 30.11 in 9.0 mi SSW 16.1 mph 28.8 mph N/A   Clear
6:00 AM 46.4 °F 39.5 °F 37.4 °F 71% 30.13 in 9.0 mi South 17.3 mph 25.3 mph N/A   Partly Cloudy
7:00 AM 46.4 °F 39.0 °F 37.4 °F 71% 30.13 in 9.0 mi SSW 19.6 mph 32.2 mph N/A   Partly Cloudy
8:00 AM 46 °F - 37 °F 61% 30.15 in 9 mi SSW 20.7 mph - -  
8:00 AM 46.4 °F 38.7 °F 37.4 °F 71% 30.15 in 9.0 mi SSW 20.7 mph 33.4 mph N/A   Clear
9:00 AM 46.4 °F 39.0 °F 37.4 °F 71% 30.17 in 9.0 mi South 19.6 mph 29.9 mph N/A   Clear
10:00 AM 46.4 °F 39.2 °F 37.4 °F 71% 30.19 in 9.0 mi SSW 18.4 mph 31.1 mph N/A   Clear
11:00 AM 49 °F - 38 °F 56% 30.19 in 9 mi SSW 18.4 mph - -  
11:00 AM 50.0 °F - 37.4 °F 62% 30.19 in 9.0 mi South 17.3 mph 33.4 mph N/A   Clear
12:00 PM 50.0 °F - 37.4 °F 62% 30.21 in 9.0 mi SSW 15.0 mph 31.1 mph N/A   Partly Cloudy
1:00 PM 51.8 °F - 37.4 °F 58% 30.21 in 9.0 mi South 18.4 mph 27.6 mph N/A   Scattered Clouds
2:00 PM 52 °F - 37 °F 45% 30.22 in 9 mi SSW 18.4 mph - -  
2:00 PM 51.8 °F - 37.4 °F 58% 30.22 in 9.0 mi SSW 19.6 mph 27.6 mph N/A   Partly Cloudy
3:00 PM 51.8 °F - 35.6 °F 54% 30.23 in 9.0 mi SSW 16.1 mph 25.3 mph N/A   Partly Cloudy
4:00 PM 50.0 °F - 35.6 °F 58% 30.24 in 9.0 mi SSW 17.3 mph 27.6 mph N/A   Clear
5:00 PM 48 °F - 35 °F 50% 30.26 in 9 mi SSW 18.4 mph - -  
5:00 PM 48.2 °F - 35.6 °F 62% 30.26 in 9.0 mi SSW 20.7 mph 29.9 mph N/A   Clear
6:00 PM 48.2 °F - 35.6 °F 62% 30.29 in 9.0 mi South 17.3 mph 28.8 mph N/A   Clear
7:00 PM 46.4 °F 39.5 °F 35.6 °F 66% 30.32 in 9.0 mi South 17.3 mph 25.3 mph N/A   Clear
8:00 PM 46 °F - 35 °F 56% 30.35 in 9 mi South 20.7 mph - -  
8:00 PM 46.4 °F 38.7 °F 35.6 °F 66% 30.35 in 9.0 mi South 20.7 mph 28.8 mph N/A   Clear
9:00 PM 44.6 °F 36.9 °F 35.6 °F 71% 30.38 in 9.0 mi South 18.4 mph - N/A   Clear
10:00 PM 44.6 °F 36.4 °F 33.8 °F 66% 30.40 in 9.0 mi South 20.7 mph - N/A   Clear
11:00 PM 43 °F - 34 °F 61% 30.41 in 9 mi South 13.8 mph - -  
11:00 PM 42.8 °F 35.4 °F 33.8 °F 70% 30.41 in 9.0 mi South 15.0 mph - N/A   Partly Cloudy